Tracking 17844 objects as of 27-August-2016
HD Live streaming from Space Station
objects crossing your sky now

BREEZE-M DEB

Track BREEZE-M DEB now!
10-day predictions


NORAD ID: 34250
Int'l Code: 2006-006BR
Perigee: -6,371.0 km
Apogee: -6,371.0 km
Inclination: 51.7 °
Period: 0.0 minutes
Semi major axis: 0 km
RCS: 0.0694 m2 (small)
Launch date: February 28, 2006
Source: Commonwealth of Independent States (former USSR) (CIS)
Launch site: TYURATAM MISSILE AND SPACE COMPLEX (TTMTR)

Note: This is SATELLITE DEBRIS
Your satellite tracking list
Your tracking list is empty





NASA's NSSDC Master Catalog

Two Line Element Set (TLE):
1 34250U 06006BR  16239.47641704 +.00000425 +00000-0 +48211-3 0  9990
2 34250 051.6906 253.1904 5111790 237.6948 062.6289 05.24577539166564
Source of the keplerian elements: AFSPC

N2YO: 504